| time (UTC) | temp F | wind direction | speed knots | gust knots | rain 1hr in | rain 24hr in | rain mn in | humidity % | barometer mb |
| 20260504215205 | 90 | 188 | 12.2 | 9.6 | 0.00 | 0.00 | 0.00 | ||
| 20260504214706 | 90 | 207 | 11.3 | 9.6 | 0.00 | 0.00 | 0.00 | ||
| 20260504214203 | 90 | 155 | 11.3 | 13.9 | 0.00 | 0.00 | 0.00 | ||
| 20260504213703 | 91 | 149 | 9.6 | 7.8 | 0.00 | 0.00 | 0.00 | ||
| 20260504213204 | 91 | 193 | 8.7 | 13.9 | 0.00 | 0.00 | 0.00 | ||
| 20260504212701 | 91 | 170 | 11.3 | 6.1 | 0.00 | 0.00 | 0.00 | ||
| 20260504212201 | 91 | 184 | 10.4 | 10.4 | 0.00 | 0.00 | 0.00 | ||
| 20260504211702 | 90 | 204 | 12.2 | 10.4 | 0.00 | 0.00 | 0.00 | ||
| 20260504211159 | 91 | 169 | 13.0 | 10.4 | 0.00 | 0.00 | 0.00 | ||
| 20260504210659 | 91 | 191 | 10.4 | 11.3 | 0.00 | 0.00 | 0.00 | ||
| 20260504210200 | 91 | 176 | 11.3 | 14.8 | 0.00 | 0.00 | 0.00 | ||
| 20260504205657 | 90 | 160 | 11.3 | 12.2 | 0.00 | 0.00 | 0.00 | ||
| 20260504205158 | 91 | 166 | 10.4 | 11.3 | 0.00 | 0.00 | 0.00 | ||
| 20260504204658 | 90 | 198 | 11.3 | 10.4 | 0.00 | 0.00 | 0.00 | ||
| 20260504204155 | 90 | 208 | 11.3 | 9.6 | 0.00 | 0.00 | 0.00 | ||
| 20260504203656 | 90 | 201 | 9.6 | 8.7 | 0.00 | 0.00 | 0.00 | ||
| 20260504203156 | 90 | 219 | 8.7 | 8.7 | 0.00 | 0.00 | 0.00 | ||
| 20260504202654 | 90 | 201 | 9.6 | 7.0 | 0.00 | 0.00 | 0.00 | ||
| 20260504202153 | 90 | 125 | 7.8 | 11.3 | 0.00 | 0.00 | 0.00 | ||
| 20260504201653 | 91 | 167 | 12.2 | 12.2 | 0.00 | 0.00 | 0.00 | ||
| 20260504201418 | 78 | 195 | 11.3 | 12.2 | 0.00 | 0.00 | 0.00 | ||
| 20260504201151 | 90 | 173 | 7.0 | 10.4 | 0.00 | 0.00 | 0.00 | ||
| 20260504200651 | 90 | 176 | 8.7 | 7.8 | 0.00 | 0.00 | 0.00 | ||
| 20260504200151 | 90 | 158 | 8.7 | 5.2 | 0.00 | 0.00 | 0.00 | ||
| 20260504195649 | 90 | 181 | 12.2 | 6.1 | 0.00 | 0.00 | 0.00 | ||
| 20260504195149 | 90 | 184 | 7.8 | 14.8 | 0.00 | 0.00 | 0.00 | ||
| 20260504194649 | 89 | 143 | 6.1 | 9.6 | 0.00 | 0.00 | 0.00 | ||
| 20260504194147 | 88 | 183 | 9.6 | 9.6 | 0.00 | 0.00 | 0.00 | ||
| 20260504193647 | 89 | 180 | 7.8 | 8.7 | 0.00 | 0.00 | 0.00 | ||
| 20260504193148 | 87 | 186 | 9.6 | 13.9 | 0.00 | 0.00 | 0.00 | ||
| 20260504192658 | 87 | 187 | 10.4 | 7.8 | 0.00 | 0.00 | 0.00 | ||
| 20260504192645 | 87 | 163 | 8.7 | 9.6 | 0.00 | 0.00 | 0.00 | ||
| 20260504192145 | 87 | 187 | 10.4 | 7.8 | 0.00 | 0.00 | 0.00 | ||
| 20260504191646 | 87 | 166 | 8.7 | 11.3 | 0.00 | 0.00 | 0.00 | ||
| 20260504191143 | 85 | 200 | 7.8 | 8.7 | 0.00 | 0.00 | 0.00 | ||
| 20260504190644 | 86 | 180 | 8.7 | 13.0 | 0.00 | 0.00 | 0.00 | ||
| 20260504190144 | 85 | 187 | 9.6 | 12.2 | 0.00 | 0.00 | 0.00 | ||
| 20260504185641 | 85 | 198 | 11.3 | 12.2 | 0.00 | 0.00 | 0.00 | ||
| 20260504185142 | 86 | 191 | 10.4 | 8.7 | 0.00 | 0.00 | 0.00 | ||
| 20260504184642 | 85 | 184 | 9.6 | 13.0 | 0.00 | 0.00 | 0.00 | ||
| 20260504184139 | 85 | 186 | 10.4 | 8.7 | 0.00 | 0.00 | 0.00 | ||
| 20260504183640 | 84 | 170 | 9.6 | 10.4 | 0.00 | 0.00 | 0.00 | ||
| 20260504183140 | 85 | 169 | 8.7 | 7.8 | 0.00 | 0.00 | 0.00 | ||
| 20260504182638 | 84 | 240 | 9.6 | 6.1 | 0.00 | 0.00 | 0.00 | ||
| 20260504182138 | 85 | 163 | 10.4 | 9.6 | 0.00 | 0.00 | 0.00 | ||
| 20260504181639 | 84 | 195 | 10.4 | 9.6 | 0.00 | 0.00 | 0.00 | ||
| 20260504181136 | 83 | 208 | 13.0 | 7.0 | 0.00 | 0.00 | 0.00 | ||
| 20260504180637 | 82 | 218 | 13.0 | 8.7 | 0.00 | 0.00 | 0.00 | ||
| 20260504180137 | 84 | 167 | 10.4 | 12.2 | 0.00 | 0.00 | 0.00 | ||
| 20260504175634 | 83 | 208 | 9.6 | 8.7 | 0.00 | 0.00 | 0.00 | ||
| 20260504175135 | 83 | 193 | 10.4 | 11.3 | 0.00 | 0.00 | 0.00 | ||
| 20260504174635 | 82 | 167 | 7.8 | 9.6 | 0.00 | 0.00 | 0.00 | ||
| 20260504174133 | 81 | 160 | 10.4 | 13.0 | 0.00 | 0.00 | 0.00 | ||
| 20260504173630 | 81 | 187 | 9.6 | 7.8 | 0.00 | 0.00 | 0.00 | ||
| 20260504173131 | 83 | 207 | 10.4 | 14.8 | 0.00 | 0.00 | 0.00 | ||
| 20260504172628 | 83 | 165 | 9.6 | 13.0 | 0.00 | 0.00 | 0.00 | ||
| 20260504172129 | 81 | 163 | 8.7 | 7.8 | 0.00 | 0.00 | 0.00 | ||
| 20260504171630 | 81 | 172 | 7.8 | 10.4 | 0.00 | 0.00 | 0.00 | ||
| 20260504171127 | 81 | 181 | 7.8 | 8.7 | 0.00 | 0.00 | 0.00 | ||
| 20260504170627 | 80 | 212 | 10.4 | 8.7 | 0.00 | 0.00 | 0.00 | ||
| 20260504170128 | 80 | 194 | 10.4 | 12.2 | 0.00 | 0.00 | 0.00 | ||
| 20260504160120 | 75 | 201 | 9.6 | 8.7 | 0.00 | 0.00 | 0.00 | ||
| 20260504151112 | 71 | 194 | 14.8 | 16.5 | 0.00 | 0.00 | 0.00 | ||
| 20260504150612 | 71 | 167 | 13.9 | 13.0 | 0.00 | 0.00 | 0.00 | ||
| 20260504150113 | 71 | 134 | 11.3 | 7.8 | 0.00 | 0.00 | 0.00 | ||
| 20260504141104 | 68 | 162 | 10.4 | 14.8 | 0.00 | 0.00 | 0.00 | ||
| 20260504140605 | 67 | 177 | 13.0 | 8.7 | 0.00 | 0.00 | 0.00 | ||
| 20260504140105 | 67 | 198 | 8.7 | 7.8 | 0.00 | 0.00 | 0.00 | ||
| 20260504130558 | 67 | 218 | 6.1 | 6.1 | 0.00 | 0.00 | 0.00 | ||
| 20260504110544 | 60 | 173 | 5.2 | 6.1 | 0.00 | 0.00 | 0.00 | ||
| 20260504100538 | 60 | 139 | 0.0 | 0.0 | 0.00 | 0.00 | 0.00 | ||
| 20260504081528 | 61 | 155 | 5.2 | 4.3 | 0.00 | 0.00 | 0.00 | ||
| 20260504081026 | 61 | 145 | 3.5 | 3.5 | 0.00 | 0.00 | 0.00 | ||
| 20260504080526 | 61 | 159 | 2.6 | 3.5 | 0.00 | 0.00 | 0.00 | ||
| 20260504050507 | 65 | 118 | 4.3 | 4.3 | 0.00 | 0.00 | 0.00 | ||
| 20260504050007 | 66 | 136 | 5.2 | 4.3 | 0.00 | 0.00 | 0.00 | ||
| 20260504045505 | 66 | 135 | 5.2 | 3.5 | 0.00 | 0.00 | 0.00 | ||
| 20260504045005 | 65 | 127 | 4.3 | 5.2 | 0.00 | 0.00 | 0.00 | ||
| 20260504044505 | 66 | 127 | 4.3 | 6.1 | 0.00 | 0.00 | 0.00 | ||
| 20260504044003 | 66 | 139 | 3.5 | 3.5 | 0.00 | 0.00 | 0.00 | ||
| 20260504043503 | 66 | 152 | 3.5 | 3.5 | 0.00 | 0.00 | 0.00 | ||
| 20260504043004 | 66 | 146 | 4.3 | 4.3 | 0.00 | 0.00 | 0.00 | ||
| 20260504042501 | 67 | 165 | 3.5 | 4.3 | 0.00 | 0.00 | 0.00 | ||
| 20260504042002 | 67 | 159 | 3.5 | 4.3 | 0.00 | 0.00 | 0.00 | ||
| 20260504041502 | 67 | 145 | 3.5 | 4.3 | 0.00 | 0.00 | 0.00 | ||
| 20260504041000 | 67 | 150 | 4.3 | 5.2 | 0.00 | 0.00 | 0.00 | ||
| 20260504040500 | 67 | 156 | 6.1 | 5.2 | 0.00 | 0.00 | 0.00 | ||
| 20260504040001 | 67 | 153 | 5.2 | 4.3 | 0.00 | 0.00 | 0.00 | ||
| 20260504035458 | 67 | 165 | 7.0 | 5.2 | 0.00 | 0.00 | 0.00 | ||
| 20260504034959 | 67 | 146 | 7.0 | 7.0 | 0.00 | 0.00 | 0.00 | ||
| 20260504034459 | 68 | 138 | 7.0 | 7.0 | 0.00 | 0.00 | 0.00 | ||
| 20260504033957 | 67 | 135 | 6.1 | 9.6 | 0.00 | 0.00 | 0.00 | ||
| 20260504033457 | 68 | 128 | 6.1 | 7.0 | 0.00 | 0.00 | 0.00 | ||
| 20260504032958 | 67 | 197 | 4.3 | 4.3 | 0.00 | 0.00 | 0.00 | ||
| 20260504032455 | 68 | 163 | 5.2 | 4.3 | 0.00 | 0.00 | 0.00 | ||
| 20260504031956 | 68 | 145 | 5.2 | 7.0 | 0.00 | 0.00 | 0.00 | ||
| 20260504031456 | 69 | 165 | 6.1 | 5.2 | 0.00 | 0.00 | 0.00 | ||
| 20260504030954 | 68 | 174 | 5.2 | 5.2 | 0.00 | 0.00 | 0.00 | ||
| 20260504030454 | 68 | 124 | 5.2 | 5.2 | 0.00 | 0.00 | 0.00 | ||
| 20260504025954 | 69 | 134 | 6.1 | 5.2 | 0.00 | 0.00 | 0.00 | ||
| 20260504025452 | 69 | 142 | 6.1 | 7.0 | 0.00 | 0.00 | 0.00 | ||
| 20260504024952 | 69 | 155 | 5.2 | 5.2 | 0.00 | 0.00 | 0.00 | ||
| 20260504024453 | 69 | 141 | 5.2 | 6.1 | 0.00 | 0.00 | 0.00 | ||
| 20260504023950 | 70 | 166 | 5.2 | 6.1 | 0.00 | 0.00 | 0.00 | ||
| 20260504023451 | 70 | 142 | 6.1 | 7.0 | 0.00 | 0.00 | 0.00 | ||
| 20260504022951 | 70 | 129 | 5.2 | 6.1 | 0.00 | 0.00 | 0.00 | ||
| 20260504022449 | 70 | 141 | 6.1 | 5.2 | 0.00 | 0.00 | 0.00 | ||
| 20260504021949 | 70 | 145 | 6.1 | 7.0 | 0.00 | 0.00 | 0.00 | ||
| 20260504021450 | 71 | 128 | 7.0 | 5.2 | 0.00 | 0.00 | 0.00 | ||
| 20260504020947 | 71 | 134 | 6.1 | 7.0 | 0.00 | 0.00 | 0.00 | ||
| 20260504020448 | 71 | 139 | 6.1 | 7.8 | 0.00 | 0.00 | 0.00 | ||
| 20260504015948 | 71 | 153 | 6.1 | 4.3 | 0.00 | 0.00 | 0.00 | ||
| 20260504015445 | 71 | 120 | 6.1 | 7.0 | 0.00 | 0.00 | 0.00 | ||
| 20260504014946 | 71 | 145 | 5.2 | 7.8 | 0.00 | 0.00 | 0.00 | ||
| 20260504014446 | 71 | 145 | 5.2 | 7.0 | 0.00 | 0.00 | 0.00 | ||
| 20260504013944 | 72 | 159 | 6.1 | 6.1 | 0.00 | 0.00 | 0.00 | ||
| 20260504013444 | 72 | 155 | 6.1 | 6.1 | 0.00 | 0.00 | 0.00 | ||
| 20260504012945 | 72 | 153 | 6.1 | 4.3 | 0.00 | 0.00 | 0.00 | ||
| 20260504012442 | 72 | 141 | 6.1 | 8.7 | 0.00 | 0.00 | 0.00 | ||
| 20260504011943 | 72 | 145 | 7.8 | 6.1 | 0.00 | 0.00 | 0.00 | ||
| 20260504010941 | 73 | 145 | 6.1 | 7.8 | 0.00 | 0.00 | 0.00 | ||
| 20260504010441 | 73 | 173 | 8.7 | 6.1 | 0.00 | 0.00 | 0.00 | ||
| 20260504005941 | 73 | 153 | 8.7 | 7.8 | 0.00 | 0.00 | 0.00 | ||
| 20260504005439 | 73 | 131 | 8.7 | 8.7 | 0.00 | 0.00 | 0.00 | ||
| 20260504004939 | 74 | 155 | 8.7 | 6.1 | 0.00 | 0.00 | 0.00 | ||
| 20260504004440 | 74 | 186 | 10.4 | 9.6 | 0.00 | 0.00 | 0.00 | ||
| 20260504003937 | 74 | 152 | 7.8 | 7.8 | 0.00 | 0.00 | 0.00 | ||
| 20260504003437 | 74 | 160 | 8.7 | 7.0 | 0.00 | 0.00 | 0.00 | ||
| 20260504002938 | 74 | 156 | 8.7 | 9.6 | 0.00 | 0.00 | 0.00 | ||
| 20260504002435 | 75 | 180 | 5.2 | 6.1 | 0.00 | 0.00 | 0.00 | ||
| 20260504001936 | 75 | 150 | 7.0 | 6.1 | 0.00 | 0.00 | 0.00 | ||
| 20260504001436 | 75 | 120 | 8.7 | 7.0 | 0.00 | 0.00 | 0.00 | ||
| 20260504000933 | 75 | 152 | 8.7 | 7.8 | 0.00 | 0.00 | 0.00 | ||
| 20260504000434 | 75 | 146 | 8.7 | 7.8 | 0.00 | 0.00 | 0.00 | ||
| 20260503235934 | 76 | 125 | 8.7 | 7.0 | 0.00 | 0.00 | 0.00 | ||
| 20260503235432 | 76 | 128 | 10.4 | 11.3 | 0.00 | 0.00 | 0.00 | ||
| 20260503234932 | 76 | 107 | 10.4 | 8.7 | 0.00 | 0.00 | 0.00 | ||
| 20260503234432 | 76 | 179 | 7.0 | 10.4 | 0.00 | 0.00 | 0.00 | ||
| 20260503233930 | 76 | 131 | 7.8 | 11.3 | 0.00 | 0.00 | 0.00 | ||
| 20260503233430 | 76 | 129 | 8.7 | 9.6 | 0.00 | 0.00 | 0.00 | ||
| 20260503232931 | 76 | 139 | 9.6 | 9.6 | 0.00 | 0.00 | 0.00 | ||
| 20260503232428 | 77 | 141 | 11.3 | 7.0 | 0.00 | 0.00 | 0.00 | ||
| 20260503231929 | 77 | 155 | 8.7 | 8.7 | 0.00 | 0.00 | 0.00 | ||
| 20260503231429 | 77 | 167 | 9.6 | 8.7 | 0.00 | 0.00 | 0.00 | ||
| 20260503230927 | 77 | 127 | 7.0 | 7.0 | 0.00 | 0.00 | 0.00 | ||
| 20260503230427 | 77 | 128 | 7.8 | 7.0 | 0.00 | 0.00 | 0.00 | ||
| 20260503225927 | 77 | 142 | 9.6 | 9.6 | 0.00 | 0.00 | 0.00 | ||
| 20260503225425 | 77 | 146 | 11.3 | 8.7 | 0.00 | 0.00 | 0.00 | ||
| 20260503224926 | 78 | 159 | 7.8 | 9.6 | 0.00 | 0.00 | 0.00 | ||
| 20260503224426 | 77 | 127 | 9.6 | 10.4 | 0.00 | 0.00 | 0.00 | ||
| 20260503223923 | 77 | 125 | 11.3 | 8.7 | 0.00 | 0.00 | 0.00 | ||
| 20260503223424 | 77 | 128 | 10.4 | 9.6 | 0.00 | 0.00 | 0.00 | ||
| 20260503222924 | 77 | 149 | 7.0 | 7.8 | 0.00 | 0.00 | 0.00 | ||
| 20260503222422 | 76 | 150 | 11.3 | 8.7 | 0.00 | 0.00 | 0.00 | ||
| 20260503221922 | 77 | 150 | 7.8 | 9.6 | 0.00 | 0.00 | 0.00 | ||
| 20260503221422 | 77 | 129 | 9.6 | 12.2 | 0.00 | 0.00 | 0.00 | ||
| 20260503220920 | 78 | 166 | 8.7 | 8.7 | 0.00 | 0.00 | 0.00 | ||
| 20260503220420 | 78 | 136 | 8.7 | 10.4 | 0.00 | 0.00 | 0.00 | ||
| 20260503215921 | 78 | 159 | 7.8 | 7.8 | 0.00 | 0.00 | 0.00 |